sat.trackr.live / text

‹ back to catalog

STARLINK-35249

NORAD 65901 · 2025-224V

PAYLOAD ACTIVE UNKNOWN

§ Identity

Operator
Country
US
Launch date
2025-10-07
Launch site
AFETR
Launch vehicle
Mass (kg)
RCS (m²)

Purposes: comms

External: N2YO · Heavens-Above · Gunter

§ Orbital elements

Epoch: 2026-05-25T01:14:02.923872Z

Period
94.10 min
Inclination
53.1603°
Eccentricity
0.0001026
Mean motion
15.30215452 rev/d
Perigee alt
474.5 km
Apogee alt
475.9 km
Semi-major
6,853.3 km
B*
6.9449e-4
RAAN
16.7910°
Arg perigee
74.2284°
Mean anomaly
285.8830°
Rev number
3,654

§ Raw data

STARLINK-352491 65901U 25224V   26145.05142273  .00020275  00000+0  69449-3 0  99982 65901  53.1603  16.7910 0001026  74.2284 285.8830 15.30215452 36541

JSON: /api/v1/satellites/65901 · /tle

For live sub-satellite position, see the globe view (requires WebGL).

§ Visibility from observer

Set your observer location to see the next 7 days of passes ≥ 10°. The values pass through the URL so the page stays shareable.

No JS? Fill the form by hand. The geolocation button needs JavaScript.